Regional Weather Roundup
Issued by NWS

Home | Current Version | Previous Version | Graphics & Text | Print | Product List | Glossary On
Versions: 1 2 3 4 5 6 7 8 9 10 11 12 13 14 15 16 17 18 19 20 21 22 23 24 25 26 27 28 29 30 31 32 33 34 35 36 37 38 39 40 41 42 43 44 45 46 47 48 49 50
000
ASUS43 KBIS 061420
RWRND

NORTH DAKOTA REGIONAL WEATHER ROUNDUP
NATIONAL WEATHER SERVICE BISMARCK ND
800 AM CST FRI MAR 06 2015

NOTE: "FAIR" INDICATES FEW OR NO CLOUDS BELOW 12,000 FEET WITH NO
SIGNIFICANT WEATHER AND/OR OBSTRUCTIONS TO VISIBILITY.


NDZ001>003-009>011-017-061500-
NORTHWEST NORTH DAKOTA

CITY           SKY/WX    TMP DP  RH WIND       PRES   REMARKS
WILLISTON      MOCLDY    17  13  84 CALM      30.06F
MINOT          MOCLDY    17  10  74 SW12      30.05S WCI   4
MINOT AFB      MOCLDY    15  13  90 W5        30.04S WCI   8
$$

NDZ018>021-031>035-040>046-061500-
SOUTHWEST NORTH DAKOTA

CITY           SKY/WX    TMP DP  RH WIND       PRES   REMARKS
BISMARCK       PTCLDY    17  13  84 W5        30.10R WCI  10
DICKINSON      CLOUDY    24  17  74 CALM      30.04S
GARRISON         N/A     14  10  84 CALM      30.07R
HETTINGER ARPT CLEAR     19  12  74 CALM      30.08S
$$

NDZ004>008-012>016-024-026-027-054-061500-
NORTHEAST NORTH DAKOTA

CITY           SKY/WX    TMP DP  RH WIND       PRES   REMARKS
GRAND FORKS    CLEAR     13   7  77 W8        30.04R WCI   2
GRND FRKS AFB  CLEAR     15   8  73 NW8       30.03S WCI   4
DEVILS LAKE    PTCLDY    12   5  73 W10       30.05R WCI  -1
$$

NDZ022-023-025-028>030-036>039-047>053-061500-
SOUTHEAST NORTH DAKOTA

CITY           SKY/WX    TMP DP  RH WIND       PRES   REMARKS
FARGO          CLEAR     15   8  73 NW12      30.06R WCI   2
JAMESTOWN      CLEAR     17  11  77 NW5       30.05R WCI  10
$$



USA.gov is the U.S. government's official web portal to all federal, state and local government web resources and services.